Location: Unspecified
(0.0000°N, 0.0000°E)
Time: 01:44:20
(UTC+02:00)

Cosmos 1536 - Visible Passes

Search period start: 03 September 2014 00:00
Search period end: 13 September 2014 00:00
Orbit: 551 x 567 km, 82.5° (Epoch: 02 September)

Date Brightness Start Highest point End Pass type
(mag) Time Alt. Az. Time Alt. Az. Time Alt. Az.
03 Sep 3.8 06:26:25 10° N 06:30:21 49° E 06:34:17 10° SSE visible
04 Sep 3.2 06:25:00 10° N 06:29:01 63° E 06:33:03 10° SSE visible
05 Sep 2.8 06:23:37 10° N 06:27:41 81° E 06:31:45 10° S visible
06 Sep 4.7 06:22:17 10° N 06:29:13 19° S 06:30:24 10° S visible
